www.pogodaiklimat.ru

Погода и климат >> Архив погоды >> Украина >> Жмеринка


ПОГОДА в Жмеринке

  • Прогноз погоды в Жмеринке
  • Монитор погоды в Жмеринке
  • Климат города

АРХИВ ПОГОДЫ в Жмеринке

Время (UTC), дата Ветер
(напр.,м/с)
 
Видим.   Явления Облачность Т
(С)
Тd
(С)
f
(%)
Тe
(С)
Тes
(С)
Комфортность P
(гПа)
Po
(гПа)
Тmin
(С)
Tmax
(С)
R
(мм)
R24
(мм)
S
(см)
06 14.02 В 3 4000 м дымка 10/10 330 м
[St]
-4.5 -5.4 93 -10 -10 1018.7 1019.0 -4.7 12
09 14.02 В 3 10 км в посл. час ливневой снег 10 баллов -4.0 -5.2 91 0.0
12 14.02 В 4 4000 м {ливн. осадки} 10/10 500 м
[Cb cap]
-2.4 -6.3 75 -8 -8 1019.7 1020.0 0.3
15 14.02 В 4 4000 м дымка 10 баллов -2.9 -4.2 91 0.0
18 14.02 В 3 4000 м дымка 10/10 330 м
[St]
-3.6 -5.0 90 -9 -9 1021.4 1021.0 -2.0 0.3
21 14.02 В 3 4000 м 10 баллов -4.8 -6.8 86 0.0
00 15.02 В 4 4000 м 10/10 630 м
[Sc]
-5.2 -6.9 88 -12 -12 1022.5 1023.0
03 15.02 В 3 4000 м слабый ливневой снег 10 баллов -5.3 -6.3 93 0.0
06 15.02 В 4 4000 м слабый ливневой снег 10/10 420 м
[Cb cap]
-4.8 -5.4 96 -11 -11 1023.7 1024.0 -5.5 1 13
09 15.02 СВ 4 4000 м слабый снег 10 баллов -2.8 -4.1 91 0.0
12 15.02 В 3 4000 м слабый снег {ливн. осадки} 10/0
[As op]
-2.0 -3.6 89 -7 -7 1024.8 1025.0 0.6
15 15.02 СВ 3 4000 м в посл. час снег 10 баллов -1.8 -2.9 92 0.0
18 15.02 В 2 4000 м слабый снег 10/10 330 м
[Frnb Ns]
-1.8 -2.9 92 -6 -6 1026.8 1027.0 -1.6 2
21 15.02 В 2 4000 м дымка 10 баллов -1.6 -2.7 92 0.0
00 16.02 В 2 4000 м дымка {снег} 10/10 330 м
[St]
-1.8 -2.9 92 -6 -6 1027.7 1028.0 0.0
03 16.02 штиль 0 слабый снег н/о 92 685.5 986.7
06 16.02 штиль 0 4000 м слабый снег 10/8 300 м
[Frnb As op]
-1.9 -2.5 96 -3 -3 1027.2 1027.0 -2.0 0.3 14
09 16.02 Ю 3 10 км в посл. час снег 10 баллов -0.6 -1.7 92 0.0
12 16.02 штиль 0 4000 м дымка 10 баллов +0.1 -1.3 90 0.0 0.3
15 16.02 штиль 0 дымка 10 баллов 94 984.0
18 16.02 штиль 0 4000 м дымка 10/10 270 м
[St]
-0.1 -0.7 96 -1 -1 1025.9 1026.0 +0.2 0.3
21 16.02 штиль 0 4000 м дымка 10 баллов -0.5 -0.8 98 0.0
00 17.02 СЗ 3 4000 м дымка 9/9 600 м
[Sc]
-0.3 -2.4 86 -5 -5 1026.4 1026.0
03 17.02 СЗ 3 дымка 10 баллов 90 1198.7 985.3
06 17.02 З 3 4000 м дымка 10/8 600 м
[Sc Ac und]
-1.1 -2.1 93 -6 -6 1025.9 1026.0 -1.9 14
09 17.02 СЗ 2 10 км 4/4 600 м
[Sc]
+0.6 -4.8 67 -3 0 1026.1 1026.0
12 17.02 З 3 10 км 8/4 600 м
[Sc Ci fib]
+2.4 -6.3 53 -1 +1 1025.3 1025.0
15 17.02 З 2 10 км 9/9 600 м
[Sc]
+1.4 -5.7 59 -1 -1 1024.5 1025.0
18 17.02 З 2 4000 м 6/3 600 м
[Sc Ac trans]
+0.2 -4.5 71 -3 -3 1024.5 1025.0 +3.0
21 17.02 З 2 4000 м ясно -2.0 -5.5 77 -6 -6 1024.0 1024.0
00 18.02 штиль 0 4000 м 10/0
[Ci fib]
-3.0 -5.7 82 -4 -4 1024.2 1024.0
03 18.02 штиль 0 4000 м 10/0
[Ci fib]
-4.2 -6.5 84 -5 -5 1023.5 1024.0
06 18.02 штиль 0 10 км 9/6 600 м
[Sc Ac trans]
-4.6 -7.0 83 -6 -5 1023.9 1024.0 -4.8 14
09 18.02 З 3 10 км 9/8 600 м
[Sc Ac trans]
-1.8 -6.0 73 -7 -6 1023.5 1024.0
12 18.02 З 2 10 км 8/0
[Ac trans Ci fib]
+2.6 -4.0 62 -0 +3 1022.6 1023.0
15 18.02 З 2 10 км 9/8 600 м
[Sc Ac trans]
+1.3 -5.0 63 -2 -2 1022.6 1023.0
18 18.02 СЗ 2 н/о 9 баллов +0.2 -4.4 71 -3 -3 1024.8 986.7
21 18.02 СЗ 4 4000 м 10/6 300 м
[Cb cap Ac und]
-1.7 -4.1 84 -7 -7 1024.5 1025.0
00 19.02 СЗ 2 4000 м {ливн. осадки} 3/0
[Ac trans]
-4.0 -7.7 75 -8 -8 1025.7 1026.0 0.0
03 19.02 СЗ 4 4000 м 10 баллов -3.7 -6.6 80 0.0
06 19.02 СЗ 3 10 км 10/0
[Ac und]
-4.4 -7.5 79 -10 -10 1027.0 1027.0 -4.6 0.0 12
09 19.02 С 3 20 км 10 баллов -3.7 -8.5 69 0.0
12 19.02 СЗ 2 20 км 1/0
[Ac trans]
-1.5 -7.9 62 -5 -1 1027.0 1027.0
15 19.02 С 2 20 км ясно -2.0 -8.7 60 -5 -5 1026.8 1027.0
18 19.02 штиль 0 4000 м ясно -4.6 -8.9 72 -5 -5 1027.1 1027.0 -0.9
21 19.02 штиль 0 4000 м ясно -7.0 -9.5 82 -8 -8 1027.2 1027.0
00 20.02 штиль 0 4000 м дымка ясно -9.4 -10.6 91 -10 -10 1027.6 1028.0
03 20.02 штиль 0 4000 м дымка ясно -10.2 -10.8 95 -11 -11 1027.5 1028.0
06 20.02 штиль 0 4000 м дымка 3/0
[Ci fib]
-11.8 -12.4 95 -12 -11 1027.8 1028.0 -12.0 11
09 20.02 штиль 0 10 км 4/0
[Ci fib]
-5.4 -7.9 83 -6 0 -342.1 1027.0
12 20.02 В 2 20 км 3/0
[Ci fib]
-0.8 -8.1 58 -4 0 1025.2 1025.0
15 20.02 В 2 20 км 8/0
[Ci fib]
-1.6 -8.9 57 -5 -5 1024.6 1025.0
18 20.02 В 2 4000 м 2 балла -5.2 -10.2 68 0.0 -0.6
21 20.02 В 2 4000 м 3/0
[Ci fib]
-6.5 -9.3 80 -11 -11 1025.3 1025.0
00 21.02 штиль 0 4000 м 7 баллов -8.2 -10.6 83 0.0

 

Местоположение метеостанции Жмеринка (Винницкая область, Украина): широта 49.05 долгота 28.10 высота над уровнем моря 304 м.

В архиве по умолчанию представлена погода в Жмеринке за последнюю неделю. Архивные данные за месяц целиком и за предыдущие месяцы, начиная с января 2011 года, Вы можете получить, выбрав интересующий диапазон дат из раскрывающегося списка и нажав кнопку "Ввод!".

Внимание! Время в таблицах - всемирное. Для получения местного времени необходимо прибавить поправку, которая в Жмеринке равна 2 ч.

Смотрите также архив погоды в соседних городах и на ближайших метеорологических станциях:

Погода в Виннице (Винницкая область, Украина) (42 км)
Погода в Хмельнике (Винницкая область, Украина) (51 км)
Погода в Новой Ушице (Хмельницкая область, Украина) (65 км)
Погода в Могилев-Подольском (Винницкая область, Украина) (71 км)
Погода в Новоднестровске (Черновицкая область, Украина) (72 км)
Погода в Хмельницком (Хмельницкая область, Украина) (92 км)
Погода в Сороках (Молдова) (96 км)
Погода в Гайсине (Винницкая область, Украина) (99 км)
Погода в Белополе (Винницкая область, Украина) (103 км)
Погода в Бричанах (Молдова) (108 км)

Пояснения к столбцам:

Ветер - указаны скорость ветра в м/с - средняя за 10 мин, порывы в срок и между сроками (в фигурных скобках) и направление, откуда дует ветер: С - северный, СВ - северо-восточный, В - восточный, ЮВ - юго-восточный, Ю - южный, ЮЗ - юго-западный, З - западный, СЗ - северо-западный.
Видимость - горизонтальная дальность видимости в метрах или километрах. При видимости от 1 до 10 км при отсутствии осадков обычно наблюдается дымка, при ухудшении видимости до 1 км и менее - туман. В сухую погоду видимость может ухудшаться дымом, пылью или мглою.
Явления - указаны атмосферные явления, наблюдавшиеся в срок или в последний час перед сроком; фигурными скобками обозначены явления, наблюдавшиеся между сроками (за 1-3 часа до срока); квадратными скобками обозначены град или гололедные отложения с указанием их диаметра в мм.
Облачность - указаны через наклонную черту общая и нижняя облачность в баллах и высота нижней границы облаков в метрах; квадратными скобками обозначены формы облаков: Ci - перистые, Cs - перисто-слоистые, Cc - перисто-кучевые, Ac - высококучевые, As - высокослоистые, Sc - слоисто-кучевые, Ns - слоисто-дождевые, Cu - кучевые, Cb - кучево-дождевые. Подробнее классификацию облаков см. в Атласе облаков (PDF).
T - Температура воздуха - температура, измеренная на высоте 2 м над землей.
Td - Температура точки росы - температура, при понижении до которой содержащийся в воздухе водяной пар достигнет насыщения.
f - Относительная влажность воздуха - влажноcть воздуха, измеренная на высоте 2 м над землей.
Te - Эффективная температура - температура, которую ощущает одетый по сезону человек в тени. Характеристика душности погоды. При расчете учитывается влияние влажности воздуха и скорости ветра на теплоощущения человека.
Tes - Эффективная температура на солнце - температура, которую ощущает человек, с поправкой на солнечный нагрев. Характеристика знойности погоды. Зависит от высоты солнца над горизонтом, облачности и скорости ветра. Ночью, в пасмурную погоду, а также при ветре 12 м/с и более поправка равна нулю.
P - Атмосферное давление - приведенное к уровню моря атмосферное давление.
Po - Атмосферное давление - измеренное на уровне метеостанции атмосферное давление.
Tmin - Минимальная температура - минимум температуры воздуха на высоте 2 м над землей.
Tmax - Максимальная температура - максимум температуры воздуха на высоте 2 м над землей.
R - Количество осадков - Количество выпавших осадков за период времени, мм. При наведении курсора мыши на число - период времени, за который выпало указанное количество осадков.
R24 - Количество осадков - Количество выпавших осадков за 24 часа, мм.
S - Снежный покров - Высота снежного покрова, см. При наведении курсора мыши на число - состояние снежного покрова и степень покрытия местности в баллах.